| time (UTC) | temp F | wind direction | speed knots | gust knots | rain 1hr in | rain 24hr in | rain mn in | humidity % | barometer mb |
| 20260503230040 | 56 | 267 | 0.0 | 4.3 | 0.00 | 0.00 | 0.00 | 68 | 1020.1 |
| 20260503224534 | 56 | 257 | 0.9 | 3.5 | 0.00 | 0.00 | 0.00 | 68 | 1020.0 |
| 20260503223033 | 56 | 204 | 0.0 | 2.6 | 0.00 | 0.00 | 0.00 | 68 | 1020.1 |
| 20260503221530 | 57 | 239 | 0.0 | 3.5 | 0.00 | 0.00 | 0.00 | 67 | 1020.1 |
| 20260503220041 | 57 | 260 | 1.7 | 6.1 | 0.00 | 0.00 | 0.00 | 68 | 1020.0 |
| 20260503214524 | 59 | 264 | 2.6 | 5.2 | 0.00 | 0.00 | 0.00 | 65 | 1019.9 |
| 20260503213026 | 60 | 255 | 0.9 | 3.5 | 0.00 | 0.00 | 0.00 | 65 | 1019.8 |
| 20260503211524 | 59 | 211 | 1.7 | 2.6 | 0.00 | 0.00 | 0.00 | 66 | 1019.8 |
| 20260503210023 | 59 | 212 | 1.7 | 2.6 | 0.00 | 0.00 | 0.00 | 66 | 1019.7 |
| 20260503204522 | 60 | 283 | 0.9 | 2.6 | 0.00 | 0.00 | 0.00 | 63 | 1019.7 |
| 20260503203029 | 62 | 279 | 0.0 | 2.6 | 0.00 | 0.00 | 0.00 | 59 | 1019.6 |
| 20260503201521 | 63 | 213 | 0.0 | 0.9 | 0.00 | 0.00 | 0.00 | 57 | 1019.6 |
| 20260503200020 | 65 | 302 | 0.0 | 1.7 | 0.00 | 0.00 | 0.00 | 55 | 1019.5 |
| 20260503194522 | 66 | 60 | 0.0 | 1.7 | 0.00 | 0.00 | 0.00 | 53 | 1019.3 |
| 20260503193018 | 66 | 60 | 0.0 | 0.9 | 0.00 | 0.00 | 0.00 | 51 | 1019.2 |
| 20260503191521 | 66 | 59 | 0.0 | 0.0 | 0.00 | 0.00 | 0.00 | 50 | 1019.1 |
| 20260503190017 | 66 | 60 | 0.9 | 1.7 | 0.00 | 0.00 | 0.00 | 49 | 1019.0 |
| 20260503184517 | 66 | 60 | 0.0 | 0.9 | 0.00 | 0.00 | 0.00 | 48 | 1018.9 |
| 20260503183021 | 67 | 60 | 0.9 | 2.6 | 0.00 | 0.00 | 0.00 | 47 | 1018.8 |
| 20260503181516 | 67 | 335 | 0.0 | 0.9 | 0.00 | 0.00 | 0.00 | 46 | 1018.7 |
| 20260503180019 | 68 | 335 | 0.9 | 2.6 | 0.00 | 0.00 | 0.00 | 44 | 1018.7 |
| 20260503174515 | 68 | 359 | 1.7 | 3.5 | 0.00 | 0.00 | 0.00 | 43 | 1018.7 |
| 20260503173017 | 69 | 9 | 0.0 | 2.6 | 0.00 | 0.00 | 0.00 | 42 | 1018.6 |
| 20260503171514 | 69 | 94 | 0.0 | 3.5 | 0.00 | 0.00 | 0.00 | 45 | 1018.7 |
| 20260503081535 | 66 | 336 | 8.7 | 14.8 | 0.00 | 0.00 | 0.00 | 49 | 1020.4 |
| 20260503071524 | 64 | 4 | 13.9 | 19.1 | 0.00 | 0.00 | 0.00 | 48 | 1020.5 |
| 20260503054514 | 62 | 70 | 2.6 | 9.6 | 0.00 | 0.00 | 0.00 | 47 | 1020.5 |
| 20260503053007 | 61 | 341 | 5.2 | 8.7 | 0.00 | 0.00 | 0.00 | 48 | 1020.3 |
| 20260503051503 | 59 | 324 | 2.6 | 5.2 | 0.00 | 0.00 | 0.00 | 50 | 1020.3 |
| 20260503050100 | 58 | 323 | 0.9 | 5.2 | 0.00 | 0.00 | 0.00 | 52 | 1020.3 |
| 20260503044608 | 57 | 312 | 1.7 | 3.5 | 0.00 | 0.00 | 0.00 | 53 | 1020.2 |
| 20260503043102 | 57 | 326 | 1.7 | 3.5 | 0.00 | 0.00 | 0.00 | 53 | 1020.2 |
| 20260503041557 | 57 | 327 | 1.7 | 5.2 | 0.00 | 0.00 | 0.00 | 53 | 1020.3 |
| 20260503040100 | 57 | 287 | 2.6 | 7.8 | 0.00 | 0.00 | 0.00 | 52 | 1020.3 |
| 20260503034556 | 57 | 302 | 1.7 | 5.2 | 0.00 | 0.00 | 0.00 | 52 | 1020.2 |
| 20260503033123 | 57 | 288 | 0.9 | 3.5 | 0.00 | 0.00 | 0.00 | 52 | 1020.3 |
| 20260503031559 | 57 | 274 | 1.7 | 7.8 | 0.00 | 0.00 | 0.00 | 51 | 1020.3 |
| 20260503024613 | 57 | 2 | 5.2 | 7.8 | 0.00 | 0.00 | 0.00 | 51 | 1020.4 |
| 20260503023049 | 57 | 336 | 4.3 | 7.0 | 0.00 | 0.00 | 0.00 | 52 | 1020.4 |
| 20260503021553 | 57 | 345 | 3.5 | 7.0 | 0.00 | 0.00 | 0.00 | 52 | 1020.4 |
| 20260503020049 | 57 | 2 | 2.6 | 7.0 | 0.00 | 0.00 | 0.00 | 53 | 1020.4 |
| 20260503014546 | 56 | 298 | 3.5 | 6.1 | 0.00 | 0.00 | 0.00 | 54 | 1020.4 |
| 20260503013045 | 56 | 313 | 2.6 | 7.0 | 0.00 | 0.00 | 0.00 | 54 | 1020.6 |
| 20260503011546 | 56 | 317 | 3.5 | 6.1 | 0.00 | 0.00 | 0.00 | 54 | 1020.7 |
| 20260503010042 | 56 | 291 | 3.5 | 7.0 | 0.00 | 0.00 | 0.00 | 54 | 1020.8 |
| 20260503004544 | 56 | 303 | 1.7 | 5.2 | 0.00 | 0.00 | 0.00 | 55 | 1020.9 |
| 20260503003040 | 56 | 295 | 2.6 | 7.8 | 0.00 | 0.00 | 0.00 | 55 | 1021.0 |
| 20260503001540 | 56 | 327 | 2.6 | 6.1 | 0.00 | 0.00 | 0.00 | 55 | 1021.2 |
| 20260503000036 | 56 | 292 | 3.5 | 6.1 | 0.00 | 0.00 | 0.00 | 54 | 1021.3 |
| 20260502234534 | 57 | 309 | 1.7 | 5.2 | 0.00 | 0.00 | 0.00 | 53 | 1021.5 |
| 20260502233041 | 57 | 276 | 2.6 | 6.1 | 0.00 | 0.00 | 0.00 | 53 | 1021.8 |
| 20260502231545 | 57 | 277 | 3.5 | 7.0 | 0.00 | 0.00 | 0.00 | 53 | 1021.9 |